Flag Weather past 2 weeks in Brazzaville, Congo

Now
91 °F

Scattered clouds.


Feels Like: 99 °F
Forecast: 75 / 83 °F
Wind: 5 mph from Southwest

Location: Brazzaville / Maya-Maya

Current Time: Oct 30, 2014 at 5:04:04 PM

Latest Report: Oct 30, 2014 at 4:00 PM


Visibility: 6 mi

Pressure: 29.74 "Hg

Humidity: 52%

Dew point: 72 °F

Location of BrazzavilleLocation

Historic Weather in Brazzaville — Graph

°F

Brazzaville temperature yesterday

Maximum temperature yesterday: 90 °F (at 2:00 PM)
Minimum temperature yesterday: 68 °F (at 6:00 AM)
Average temperature yesterday: 78 °F

Past Weeks' High & Low Weather Summary

 TemperatureHumidityPressure
High90 °F (Oct 16, 2:00 PM)100% (Oct 28, 7:57 AM)30.04 "Hg (Oct 28, 7:57 AM)
Low68 °F (Oct 29, 6:00 AM)52% (Oct 16, 4:00 PM)29.74 "Hg (Oct 30, 3:00 PM)
Average79 °F76%29.91 "Hg
* Reported Oct 15 3:00 PM — Oct 30 3:00 PM, Brazzaville, Weather by CustomWeather, © 2014

Note: Actual official high and low records may vary slightly from our data, if they occured in-between our weather recording intervals... More about our weather records

Advertising

Brazzaville weather history for previous 24 hours

 ConditionsComfort  
Time TempWeatherWind HumidityBarometerVisibility
3:00 PM
Oct 30
90 °FScattered clouds.5 mph55%29.74 "Hg6 mi
2:00 PM90 °FScattered clouds.2 mph55%29.80 "HgN/A
1:00 PM88 °FPartly sunny.3 mph62%29.83 "HgN/A
12:00 PM88 °FPartly sunny.3 mph62%29.89 "HgN/A
11:00 AM84 °FPartly sunny.3 mph70%29.89 "HgN/A
10:00 AM81 °FPartly sunny.5 mph74%29.92 "HgN/A
9:00 AM77 °FPartly sunny.5 mph83%29.92 "HgN/A
8:00 AM77 °FPartly sunny.2 mph83%29.92 "HgN/A
6:00 AM75 °FSunny.No wind89%29.89 "Hg10 mi
5:00 AM75 °FPassing clouds.2 mph83%29.89 "HgN/A
4:00 AM75 °FPassing clouds.No wind83%29.86 "HgN/A
3:00 AM75 °FClear.No wind89%29.83 "Hg10 mi
2:00 AM77 °FClear.2 mph83%29.83 "Hg10 mi
1:00 AM77 °FClear.2 mph83%29.86 "Hg5 mi
12:00 AM79 °FClear.2 mph79%29.86 "Hg6 mi
11:00 PM
Oct 29
79 °FClear.2 mph79%29.89 "Hg6 mi
10:00 PM79 °FClear.2 mph79%29.89 "Hg6 mi
9:00 PM82 °FPassing clouds.No wind70%29.86 "Hg6 mi
8:00 PM84 °FThunderstorms. Passing clouds.5 mph62%29.83 "Hg5 mi
7:04 PM84 °FThunderstorms. Passing clouds.3 mph62%29.80 "Hg5 mi
6:00 PM88 °FPassing clouds.2 mph55%29.77 "HgN/A
5:00 PM90 °FPassing clouds.2 mph52%29.77 "HgN/A
Weather by CustomWeather, © 2014

See weather overviewHow to use our weather pages